Regional Weather Roundup
Issued by NWS Newport/Morehead, NC

Current Version | Previous Version | Graphics & Text | Print | Product List | Glossary Off
Versions: 1 2 3 4 5 6 7 8 9 10 11 12 13 14 15 16 17 18 19 20 21 22 23 24 25 26 27 28 29 30 31 32 33 34 35 36 37 38 39 40 41 42 43 44 45 46 47 48 49 50

000
ASUS42 KMHX 301822
RWRMHX
WEATHER ROUNDUP FOR EASTERN NORTH CAROLINA
NATIONAL WEATHER SERVICE NEWPORT/MOREHEAD CITY NC
200 PM EDT SAT AUG 30 2014

NOTE: "FAIR" INDICATES FEW OR NO CLOUDS BELOW 12,000 FEET
WITH NO SIGNIFICANT WEATHER AND/OR OBSTRUCTIONS TO VISIBILITY

NCZ015>017-031-032-045>047-102-103-301900-
NORTH COAST

CITY           SKY/WX    TMP DP  RH WIND       PRES   REMARKS
EDENTON        MOSUNNY   85  73  66 E6        30.18F
ELIZABETH CITY SUNNY     84  73  69 E9        30.20F
KITTY HAWK     CLEAR     84  73  70 SE6       30.19F
MANTEO         CLOUDY    81  74  80 E8        30.20F

$$

NCZ045>047-081-094-103-104-301900-
CENTRAL COAST

CITY           SKY/WX    TMP DP  RH WIND       PRES   REMARKS
FRISCO         MOSUNNY   84  75  74 S9        30.20
SWANQUARTER      N/A     88 N/A N/A S7G13     30.15S

$$

NCZ095-097-098-100-101-301900-
SOUTHERN COAST

CITY           SKY/WX    TMP DP  RH WIND       PRES   REMARKS
BEAUFORT       MOSUNNY   86  75  69 S9        30.20F
CEDAR ISLAND     N/A     88 N/A N/A SE8       30.24S
JACKSONVILLE   MOSUNNY   85  73  67 E9        30.18F
NEWPORT        NOT AVBL
PINEY ISLAND   PTCLDY    87  75  67 E7        30.19F
WILMINGTON     MOSUNNY   86  74  67 SE9       30.19F


$$

NCZ011>013-027>030-043-044-078>080-089-090>093-098-301900-
COASTAL PLAIN

CITY           SKY/WX    TMP DP  RH WIND       PRES   REMARKS
AHOSKIE        SUNNY     84  72  66 CALM      30.19F
CLINTON        MOSUNNY   88  73  62 NE6       30.17F
ELIZABETHTOWN  RAIN      78  74  88 SE5       30.18S
GOLDSBORO      MOSUNNY   89  71  54 VRB2      30.17F
GREENVILLE     SUNNY     88  70  55 S6        30.20F
HAVELOCK       MOSUNNY   86  71  60 SE10      30.20F
KENANSVILLE    PTSUNNY   85  69  58 CALM      30.19F
KINSTON        SUNNY     88  70  55 NE6       30.19F
NEW BERN       SUNNY     91  62  37 S5        30.19F
RICHLANDS      CLOUDY    81  73  78 S8        30.20R
ROANOKE RAPIDS NOT AVBL
ROCKY MOUNT    MOSUNNY   87  70  56 CALM      30.19F
WASHINGTON     SUNNY     86  71  61 CALM      30.18F
WHITEVILLE     CLOUDY    87  73  63 E5        30.16F

$$

AMZ130-135-150-152-154-156-158-170-250-252-270-ANZ085-086-088-633-658-670-301900-
MARINE OBSERVATIONS

STATION/POSITION TIME  TEMP    WIND        PRES    WAVE   SWELL
                       AIR SEA DIR/SP/G            HT/PER HT/PER
                 (UTC) (F)     (DEG/KT/KT) (MB)    (FT/S) (FT/S)
CHESAPEAKE LIGHT 1800   76     130/ 13/ 14 1023.7
BUOY 44014       1800   77 78  110/ 10/ 10 1023.1    3/ 8   3/ 8
DUCK             1800   80 78  100/ 12/ 13 1022.1
2E DUCK          1800                        N/A     3/ 8
OREGON INLET     1800   81 78  100/  8/ 11 1022.8
BUOY 44095       1800      78                N/A     3/ 7
20E OREGON INLET NOT AVBL
HATTERAS CG      1800   83 81  160/  5/  7 1023.1
DIAMOND BUOY     1800   80     170/  8/ 12 1022.6    3/ 8   3/ 8
CAPE LOOKOUT     1800   79     160/  6/  6 1022.6
BEAUFORT LAB     1800   81 81  190/  9/  9 1022.1
30 SE NEW RIVER  1800   81 83   90/  6/  8 1023.1    2/ 8   2/ 8
5 SE WRIGHTSVILL 1800   79 82  140/ 10/ 12   N/A
BUOY 41002       1733   82 83  140/  8/ 10 1022.9    4/ 7   3/ 7
BUOY 41004       1800   83 83   60/  6/ 10 1021.1    3/ 8   2/ 8

$$


USA.gov is the U.S. government's official web portal to all federal, state and local government web resources and services.